Location: St. Louis
(38.6270°N, 90.1994°W)
Time: 10:16:11
(UTC-06:00)

Tiros 1 despin weight - Pass Details

Date: 07 December 2021
Orbit: 592 x 641 km, 48.2° (Epoch: 25 January)

Event Time Altitude Azimuth Distance (km) Brightness Sun altitude
Rises 18:22:20 0° 295° (WNW) 2,823 ? -19.5°
Reaches altitude 10° 18:24:46 10° 286° (WNW) 1,921 ? -20.0°
Maximum altitude 18:28:42 32° 223° (SW) 1,016 ? -20.7°
Drops below altitude 10° 18:32:39 10° 159° (SSE) 1,926 ? -21.5°
Enters shadow 18:33:11 - 156° (SSE) 2,119 ? -21.6°
